Year,Month,Day,Hour,Minute,Value (Times are PST for barometer in hPa)
2021,10,25,00,00,984.32
2021,10,25,00,01,984.31
2021,10,25,00,02,984.19
2021,10,25,00,03,984.15
2021,10,25,00,04,984.22
2021,10,25,00,05,984.15
2021,10,25,00,06,984.15
2021,10,25,00,07,984.22
2021,10,25,00,08,984.32
2021,10,25,00,09,984.15
2021,10,25,00,10,984.15
2021,10,25,00,11,984.15
2021,10,25,00,12,984.19
2021,10,25,00,13,984.19
2021,10,25,00,14,984.15
2021,10,25,00,15,984.19
2021,10,25,00,16,984.19
2021,10,25,00,17,984.19
2021,10,25,00,18,984.25
2021,10,25,00,19,984.15
2021,10,25,00,20,984.08
2021,10,25,00,21,984.09
2021,10,25,00,22,984.19
2021,10,25,00,23,984.08
2021,10,25,00,24,984.19
2021,10,25,00,25,984.15
2021,10,25,00,26,984.19
2021,10,25,00,27,984.22
2021,10,25,00,28,984.15
2021,10,25,00,29,984.19
2021,10,25,00,30,984.15
2021,10,25,00,31,984.19
2021,10,25,00,32,984.13
2021,10,25,00,33,984.25
2021,10,25,00,34,984.22
2021,10,25,00,35,984.16
2021,10,25,00,36,984.25
2021,10,25,00,37,984.19
2021,10,25,00,38,984.22
2021,10,25,00,39,984.22
2021,10,25,00,40,984.22
2021,10,25,00,41,984.22
2021,10,25,00,42,984.22
2021,10,25,00,43,984.25
2021,10,25,00,44,984.29
2021,10,25,00,45,984.32
2021,10,25,00,46,984.32
2021,10,25,00,47,984.19
2021,10,25,00,48,984.19
2021,10,25,00,49,984.15
2021,10,25,00,50,984.02
2021,10,25,00,51,984.22
2021,10,25,00,52,984.22
2021,10,25,00,53,984.22
2021,10,25,00,54,984.12
2021,10,25,00,55,984.22
2021,10,25,00,56,984.25
2021,10,25,00,57,984.25
2021,10,25,00,58,984.22
2021,10,25,00,59,984.19
2021,10,25,01,00,984.25
2021,10,25,01,01,984.25
2021,10,25,01,02,984.31
2021,10,25,01,03,984.12
2021,10,25,01,04,984.08
2021,10,25,01,05,983.98
2021,10,25,01,06,984.02
2021,10,25,01,07,984.03
2021,10,25,01,08,984.22
2021,10,25,01,09,984.25
2021,10,25,01,10,984.22
2021,10,25,01,11,984.22
2021,10,25,01,12,984.15
2021,10,25,01,13,984.19
2021,10,25,01,14,984.19
2021,10,25,01,15,984.15
2021,10,25,01,16,984.20
2021,10,25,01,17,984.29
2021,10,25,01,18,984.32
2021,10,25,01,19,984.22
2021,10,25,01,20,984.36
2021,10,25,01,21,984.39
2021,10,25,01,22,984.42
2021,10,25,01,23,984.46
2021,10,25,01,24,984.39
2021,10,25,01,25,984.39
2021,10,25,01,26,984.41
2021,10,25,01,27,984.22
2021,10,25,01,28,984.25
2021,10,25,01,29,984.22
2021,10,25,01,30,984.18
2021,10,25,01,31,984.08
2021,10,25,01,32,984.12
2021,10,25,01,33,984.22
2021,10,25,01,34,984.15
2021,10,25,01,35,984.21
2021,10,25,01,36,984.02
2021,10,25,01,37,984.05
2021,10,25,01,38,984.15
2021,10,25,01,39,984.19
2021,10,25,01,40,984.25
2021,10,25,01,41,984.22
2021,10,25,01,42,984.20
2021,10,25,01,43,984.32
2021,10,25,01,44,984.32
2021,10,25,01,45,984.25
2021,10,25,01,46,984.42
2021,10,25,01,47,984.39
2021,10,25,01,48,984.32
2021,10,25,01,49,984.48
2021,10,25,01,50,984.39
2021,10,25,01,51,984.36
2021,10,25,01,52,984.49
2021,10,25,01,53,984.53
2021,10,25,01,54,984.63
2021,10,25,01,55,984.58
2021,10,25,01,56,984.43
2021,10,25,01,57,984.59
2021,10,25,01,58,984.56
2021,10,25,01,59,984.59
2021,10,25,02,00,984.56
2021,10,25,02,01,984.67
2021,10,25,02,02,984.79
2021,10,25,02,03,984.59
2021,10,25,02,04,984.59
2021,10,25,02,05,984.63
2021,10,25,02,06,984.69
2021,10,25,02,07,984.59
2021,10,25,02,08,984.63
2021,10,25,02,09,984.66
2021,10,25,02,10,984.69
2021,10,25,02,11,984.76
2021,10,25,02,12,984.66
2021,10,25,02,13,984.69
2021,10,25,02,14,984.73
2021,10,25,02,15,984.76
2021,10,25,02,16,984.80
2021,10,25,02,17,984.76
2021,10,25,02,18,984.73
2021,10,25,02,19,984.76
2021,10,25,02,20,984.74
2021,10,25,02,21,984.99
2021,10,25,02,22,984.90
2021,10,25,02,23,984.90
2021,10,25,02,24,984.93
2021,10,25,02,25,984.93
2021,10,25,02,26,985.01
2021,10,25,02,27,985.09
2021,10,25,02,28,985.00
2021,10,25,02,29,985.00
2021,10,25,02,30,985.00
2021,10,25,02,31,984.97
2021,10,25,02,32,985.01
2021,10,25,02,33,985.10
2021,10,25,02,34,985.03
2021,10,25,02,35,985.03
2021,10,25,02,36,985.07
2021,10,25,02,37,985.03
2021,10,25,02,38,985.07
2021,10,25,02,39,985.10
2021,10,25,02,40,985.10
2021,10,25,02,41,985.10
2021,10,25,02,42,985.03
2021,10,25,02,43,985.03
2021,10,25,02,44,985.10
2021,10,25,02,45,985.13
2021,10,25,02,46,985.17
2021,10,25,02,47,985.20
2021,10,25,02,48,985.17
2021,10,25,02,49,985.20
2021,10,25,02,50,985.24
2021,10,25,02,51,985.17
2021,10,25,02,52,985.10
2021,10,25,02,53,985.08
2021,10,25,02,54,985.20
2021,10,25,02,55,985.14
2021,10,25,02,56,985.27
2021,10,25,02,57,985.34
2021,10,25,02,58,985.37
2021,10,25,02,59,985.34
2021,10,25,03,00,985.34
2021,10,25,03,01,985.47
2021,10,25,03,02,985.34
2021,10,25,03,03,985.31
2021,10,25,03,04,985.44
2021,10,25,03,05,985.41
2021,10,25,03,06,985.41
2021,10,25,03,07,985.44
2021,10,25,03,08,985.51
2021,10,25,03,09,985.47
2021,10,25,03,10,985.44
2021,10,25,03,11,985.44
2021,10,25,03,12,985.34
2021,10,25,03,13,985.37
2021,10,25,03,14,985.41
2021,10,25,03,15,985.47
2021,10,25,03,16,985.47
2021,10,25,03,17,985.51
2021,10,25,03,18,985.53
2021,10,25,03,19,985.44
2021,10,25,03,20,985.51
2021,10,25,03,21,985.54
2021,10,25,03,22,985.57
2021,10,25,03,23,985.54
2021,10,25,03,24,985.54
2021,10,25,03,25,985.57
2021,10,25,03,26,985.64
2021,10,25,03,27,985.61
2021,10,25,03,28,985.71
2021,10,25,03,29,985.71
2021,10,25,03,30,985.71
2021,10,25,03,31,985.74
2021,10,25,03,32,985.78
2021,10,25,03,33,985.85
2021,10,25,03,34,985.78
2021,10,25,03,35,985.74
2021,10,25,03,36,985.74
2021,10,25,03,37,985.68
2021,10,25,03,38,985.64
2021,10,25,03,39,985.61
2021,10,25,03,40,985.71
2021,10,25,03,41,985.80
2021,10,25,03,42,985.71
2021,10,25,03,43,985.70
2021,10,25,03,44,985.57
2021,10,25,03,45,985.57
2021,10,25,03,46,985.54
2021,10,25,03,47,985.57
2021,10,25,03,48,985.57
2021,10,25,03,49,985.64
2021,10,25,03,50,985.64
2021,10,25,03,51,985.64
2021,10,25,03,52,985.61
2021,10,25,03,53,985.71
2021,10,25,03,54,985.81
2021,10,25,03,55,985.78
2021,10,25,03,56,985.88
2021,10,25,03,57,985.85
2021,10,25,03,58,985.85
2021,10,25,03,59,985.81
2021,10,25,04,00,985.74
2021,10,25,04,01,985.71
2021,10,25,04,02,985.71
2021,10,25,04,03,985.78
2021,10,25,04,04,985.74
2021,10,25,04,05,985.74
2021,10,25,04,06,985.78
2021,10,25,04,07,985.74
2021,10,25,04,08,985.74
2021,10,25,04,09,985.74
2021,10,25,04,10,985.74
2021,10,25,04,11,985.74
2021,10,25,04,12,985.71
2021,10,25,04,13,985.71
2021,10,25,04,14,985.65
2021,10,25,04,15,985.81
2021,10,25,04,16,985.88
2021,10,25,04,17,985.91
2021,10,25,04,18,985.91
2021,10,25,04,19,985.85
2021,10,25,04,20,985.85
2021,10,25,04,21,985.88
2021,10,25,04,22,985.88
2021,10,25,04,23,985.91
2021,10,25,04,24,985.85
2021,10,25,04,25,985.91
2021,10,25,04,26,985.88
2021,10,25,04,27,985.95
2021,10,25,04,28,985.95
2021,10,25,04,29,986.02
2021,10,25,04,30,985.95
2021,10,25,04,31,986.02
2021,10,25,04,32,985.98
2021,10,25,04,33,986.08
2021,10,25,04,34,986.05
2021,10,25,04,35,985.95
2021,10,25,04,36,986.08
2021,10,25,04,37,986.08
2021,10,25,04,38,986.05
2021,10,25,04,39,986.05
2021,10,25,04,40,986.15
2021,10,25,04,41,986.15
2021,10,25,04,42,986.12
2021,10,25,04,43,986.05
2021,10,25,04,44,986.12
2021,10,25,04,45,986.15
2021,10,25,04,46,986.12
2021,10,25,04,47,985.98
2021,10,25,04,48,986.02
2021,10,25,04,49,986.05
2021,10,25,04,50,986.08
2021,10,25,04,51,986.12
2021,10,25,04,52,986.08
2021,10,25,04,53,986.15
2021,10,25,04,54,986.18
2021,10,25,04,55,986.12
2021,10,25,04,56,986.08
2021,10,25,04,57,986.12
2021,10,25,04,58,986.16
2021,10,25,04,59,986.25
2021,10,25,05,00,986.25
2021,10,25,05,01,986.22
2021,10,25,05,02,986.35
2021,10,25,05,03,986.32
2021,10,25,05,04,986.39
2021,10,25,05,05,986.35
2021,10,25,05,06,986.46
2021,10,25,05,07,986.42
2021,10,25,05,08,986.42
2021,10,25,05,09,986.48
2021,10,25,05,10,986.34
2021,10,25,05,11,986.26
2021,10,25,05,12,986.42
2021,10,25,05,13,986.46
2021,10,25,05,14,986.52
2021,10,25,05,15,986.56
2021,10,25,05,16,986.49
2021,10,25,05,17,986.55
2021,10,25,05,18,986.46
2021,10,25,05,19,986.46
2021,10,25,05,20,986.53
2021,10,25,05,21,986.61
2021,10,25,05,22,986.52
2021,10,25,05,23,986.52
2021,10,25,05,24,986.56
2021,10,25,05,25,986.56
2021,10,25,05,26,986.52
2021,10,25,05,27,986.59
2021,10,25,05,28,986.52
2021,10,25,05,29,986.59
2021,10,25,05,30,986.59
2021,10,25,05,31,986.49
2021,10,25,05,32,986.43
2021,10,25,05,33,986.61
2021,10,25,05,34,986.49
2021,10,25,05,35,986.49
2021,10,25,05,36,986.52
2021,10,25,05,37,986.59
2021,10,25,05,38,986.49
2021,10,25,05,39,986.48
2021,10,25,05,40,986.35
2021,10,25,05,41,986.35
2021,10,25,05,42,986.35
2021,10,25,05,43,986.36
2021,10,25,05,44,986.55
2021,10,25,05,45,986.46
2021,10,25,05,46,986.42
2021,10,25,05,47,986.52
2021,10,25,05,48,986.51
2021,10,25,05,49,986.39
2021,10,25,05,50,986.35
2021,10,25,05,51,986.39
2021,10,25,05,52,986.39
2021,10,25,05,53,986.35
2021,10,25,05,54,986.29
2021,10,25,05,55,986.32
2021,10,25,05,56,986.25
2021,10,25,05,57,986.22
2021,10,25,05,58,986.29
2021,10,25,05,59,986.22
2021,10,25,06,00,986.22
2021,10,25,06,01,986.29
2021,10,25,06,02,986.32
2021,10,25,06,03,986.41
2021,10,25,06,04,986.32
2021,10,25,06,05,986.32
2021,10,25,06,06,986.35
2021,10,25,06,07,986.39
2021,10,25,06,08,986.29
2021,10,25,06,09,986.46
2021,10,25,06,10,986.46
2021,10,25,06,11,986.49
2021,10,25,06,12,986.49
2021,10,25,06,13,986.56
2021,10,25,06,14,986.59
2021,10,25,06,15,986.62
2021,10,25,06,16,986.56
2021,10,25,06,17,986.56
2021,10,25,06,18,986.59
2021,10,25,06,19,986.69
2021,10,25,06,20,986.69
2021,10,25,06,21,986.73
2021,10,25,06,22,986.73
2021,10,25,06,23,986.79
2021,10,25,06,24,986.79
2021,10,25,06,25,986.76
2021,10,25,06,26,986.76
2021,10,25,06,27,986.73
2021,10,25,06,28,986.83
2021,10,25,06,29,986.83
2021,10,25,06,30,986.76
2021,10,25,06,31,986.76
2021,10,25,06,32,986.90
2021,10,25,06,33,986.83
2021,10,25,06,34,986.86
2021,10,25,06,35,986.86
2021,10,25,06,36,987.03
2021,10,25,06,37,986.93
2021,10,25,06,38,986.96
2021,10,25,06,39,986.93
2021,10,25,06,40,986.97
2021,10,25,06,41,987.06
2021,10,25,06,42,987.10
2021,10,25,06,43,987.06
2021,10,25,06,44,986.96
2021,10,25,06,45,987.00
2021,10,25,06,46,986.93
2021,10,25,06,47,986.86
2021,10,25,06,48,986.96
2021,10,25,06,49,986.96
2021,10,25,06,50,986.96
2021,10,25,06,51,986.86
2021,10,25,06,52,986.96
2021,10,25,06,53,986.83
2021,10,25,06,54,986.86
2021,10,25,06,55,987.00
2021,10,25,06,56,987.00
2021,10,25,06,57,987.03
2021,10,25,06,58,987.03
2021,10,25,06,59,987.03
2021,10,25,07,00,987.10
2021,10,25,07,01,987.10
2021,10,25,07,02,987.07
2021,10,25,07,03,987.23
2021,10,25,07,04,987.03
2021,10,25,07,05,987.06
2021,10,25,07,06,987.13
2021,10,25,07,07,987.13
2021,10,25,07,08,987.10
2021,10,25,07,09,987.17
2021,10,25,07,10,987.20
2021,10,25,07,11,987.13
2021,10,25,07,12,987.17
2021,10,25,07,13,987.17
2021,10,25,07,14,987.23
2021,10,25,07,15,987.30
2021,10,25,07,16,987.27
2021,10,25,07,17,987.30
2021,10,25,07,18,987.30
2021,10,25,07,19,987.37
2021,10,25,07,20,987.44
2021,10,25,07,21,987.40
2021,10,25,07,22,987.47
2021,10,25,07,23,987.54
2021,10,25,07,24,987.57
2021,10,25,07,25,987.64
2021,10,25,07,26,987.61
2021,10,25,07,27,987.54
2021,10,25,07,28,987.57
2021,10,25,07,29,987.47
2021,10,25,07,30,987.40
2021,10,25,07,31,987.34
2021,10,25,07,32,987.37
2021,10,25,07,33,987.47
2021,10,25,07,34,987.47
2021,10,25,07,35,987.57
2021,10,25,07,36,987.54
2021,10,25,07,37,987.61
2021,10,25,07,38,987.67
2021,10,25,07,39,987.61
2021,10,25,07,40,987.67
2021,10,25,07,41,987.64
2021,10,25,07,42,987.57
2021,10,25,07,43,987.67
2021,10,25,07,44,987.71
2021,10,25,07,45,987.67
2021,10,25,07,46,987.67
2021,10,25,07,47,987.64
2021,10,25,07,48,987.67
2021,10,25,07,49,987.64
2021,10,25,07,50,987.61
2021,10,25,07,51,987.64
2021,10,25,07,52,987.67
2021,10,25,07,53,987.64
2021,10,25,07,54,987.61
2021,10,25,07,55,987.64
2021,10,25,07,56,987.71
2021,10,25,07,57,987.67
2021,10,25,07,58,987.67
2021,10,25,07,59,987.81
2021,10,25,08,00,987.71
2021,10,25,08,01,987.81
2021,10,25,08,02,987.74
2021,10,25,08,03,987.67
2021,10,25,08,04,987.78
2021,10,25,08,05,987.88
2021,10,25,08,06,987.88
2021,10,25,08,07,987.84
2021,10,25,08,08,987.84
2021,10,25,08,09,987.88
2021,10,25,08,10,987.84
2021,10,25,08,11,987.81
2021,10,25,08,12,987.88
2021,10,25,08,13,987.88
2021,10,25,08,14,987.81
2021,10,25,08,15,987.79
2021,10,25,08,16,987.95
2021,10,25,08,17,988.05
2021,10,25,08,18,987.98
2021,10,25,08,19,987.98
2021,10,25,08,20,987.95
2021,10,25,08,21,988.15
2021,10,25,08,22,988.18
2021,10,25,08,23,988.08
2021,10,25,08,24,988.05
2021,10,25,08,25,988.05
2021,10,25,08,26,987.97
2021,10,25,08,27,987.78
2021,10,25,08,28,987.92
2021,10,25,08,29,988.08
2021,10,25,08,30,988.22
2021,10,25,08,31,988.18
2021,10,25,08,32,988.11
2021,10,25,08,33,988.18
2021,10,25,08,34,988.32
2021,10,25,08,35,988.35
2021,10,25,08,36,988.39
2021,10,25,08,37,988.10
2021,10,25,08,38,987.98
2021,10,25,08,39,988.08
2021,10,25,08,40,988.14
2021,10,25,08,41,987.95
2021,10,25,08,42,987.91
2021,10,25,08,43,987.98
2021,10,25,08,44,987.98
2021,10,25,08,45,987.84
2021,10,25,08,46,987.82
2021,10,25,08,47,987.91
2021,10,25,08,48,987.81
2021,10,25,08,49,987.74
2021,10,25,08,50,987.78
2021,10,25,08,51,987.91
2021,10,25,08,52,987.78
2021,10,25,08,53,987.78
2021,10,25,08,54,987.74
2021,10,25,08,55,987.81
2021,10,25,08,56,987.91
2021,10,25,08,57,987.84
2021,10,25,08,58,987.91
2021,10,25,08,59,988.05
2021,10,25,09,00,988.11
2021,10,25,09,01,988.22
2021,10,25,09,02,988.18
2021,10,25,09,03,988.25
2021,10,25,09,04,988.15
2021,10,25,09,05,988.08
2021,10,25,09,06,988.33
2021,10,25,09,07,988.42
2021,10,25,09,08,988.35
2021,10,25,09,09,988.45
2021,10,25,09,10,988.45
2021,10,25,09,11,988.49
2021,10,25,09,12,988.43
2021,10,25,09,13,988.55
2021,10,25,09,14,988.49
2021,10,25,09,15,988.55
2021,10,25,09,16,988.52
2021,10,25,09,17,988.42
2021,10,25,09,18,988.39
2021,10,25,09,19,988.45
2021,10,25,09,20,988.39
2021,10,25,09,21,988.35
2021,10,25,09,22,988.52
2021,10,25,09,23,988.42
2021,10,25,09,24,988.34
2021,10,25,09,25,988.11
2021,10,25,09,26,988.01
2021,10,25,09,27,987.81
2021,10,25,09,28,987.78
2021,10,25,09,29,987.84
2021,10,25,09,30,988.05
2021,10,25,09,31,988.01
2021,10,25,09,32,988.11
2021,10,25,09,33,988.16
2021,10,25,09,34,988.28
2021,10,25,09,35,988.25
2021,10,25,09,36,988.25
2021,10,25,09,37,988.18
2021,10,25,09,38,988.27
2021,10,25,09,39,988.11
2021,10,25,09,40,988.15
2021,10,25,09,41,988.25
2021,10,25,09,42,988.18
2021,10,25,09,43,988.35
2021,10,25,09,44,988.35
2021,10,25,09,45,988.42
2021,10,25,09,46,988.45
2021,10,25,09,47,988.52
2021,10,25,09,48,988.55
2021,10,25,09,49,988.66
2021,10,25,09,50,988.62
2021,10,25,09,51,988.62
2021,10,25,09,52,988.59
2021,10,25,09,53,988.55
2021,10,25,09,54,988.59
2021,10,25,09,55,988.69
2021,10,25,09,56,988.66
2021,10,25,09,57,988.66
2021,10,25,09,58,988.69
2021,10,25,09,59,988.66
2021,10,25,10,00,988.59
2021,10,25,10,01,988.55
2021,10,25,10,02,988.49
2021,10,25,10,03,988.45
2021,10,25,10,04,988.39
2021,10,25,10,05,988.39
2021,10,25,10,06,988.25
2021,10,25,10,07,988.22
2021,10,25,10,08,988.25
2021,10,25,10,09,988.24
2021,10,25,10,10,988.15
2021,10,25,10,11,988.18
2021,10,25,10,12,988.22
2021,10,25,10,13,988.32
2021,10,25,10,14,988.18
2021,10,25,10,15,988.22
2021,10,25,10,16,988.28
2021,10,25,10,17,988.22
2021,10,25,10,18,988.32
2021,10,25,10,19,988.28
2021,10,25,10,20,988.35
2021,10,25,10,21,988.42
2021,10,25,10,22,988.42
2021,10,25,10,23,988.52
2021,10,25,10,24,988.28
2021,10,25,10,25,988.39
2021,10,25,10,26,988.28
2021,10,25,10,27,988.36
2021,10,25,10,28,988.49
2021,10,25,10,29,988.39
2021,10,25,10,30,988.62
2021,10,25,10,31,988.62
2021,10,25,10,32,988.66
2021,10,25,10,33,988.59
2021,10,25,10,34,988.51
2021,10,25,10,35,988.39
2021,10,25,10,36,988.32
2021,10,25,10,37,988.35
2021,10,25,10,38,988.42
2021,10,25,10,39,988.45
2021,10,25,10,40,988.45
2021,10,25,10,41,988.45
2021,10,25,10,42,988.48
2021,10,25,10,43,988.39
2021,10,25,10,44,988.28
2021,10,25,10,45,988.25
2021,10,25,10,46,988.22
2021,10,25,10,47,988.25
2021,10,25,10,48,988.25
2021,10,25,10,49,988.28
2021,10,25,10,50,988.35
2021,10,25,10,51,988.39
2021,10,25,10,52,988.52
2021,10,25,10,53,988.42
2021,10,25,10,54,988.35
2021,10,25,10,55,988.42
2021,10,25,10,56,988.39
2021,10,25,10,57,988.52
2021,10,25,10,58,988.45
2021,10,25,10,59,988.39
2021,10,25,11,00,988.42
2021,10,25,11,01,988.49
2021,10,25,11,02,988.52
2021,10,25,11,03,988.59
2021,10,25,11,04,988.59
2021,10,25,11,05,988.66
2021,10,25,11,06,988.76
2021,10,25,11,07,988.69
2021,10,25,11,08,988.79
2021,10,25,11,09,988.83
2021,10,25,11,10,988.83
2021,10,25,11,11,988.79
2021,10,25,11,12,988.83
2021,10,25,11,13,988.62
2021,10,25,11,14,988.62
2021,10,25,11,15,988.63
2021,10,25,11,16,988.79
2021,10,25,11,17,988.79
2021,10,25,11,18,988.89
2021,10,25,11,19,988.96
2021,10,25,11,20,989.13
2021,10,25,11,21,989.13
2021,10,25,11,22,989.20
2021,10,25,11,23,989.23
2021,10,25,11,24,989.20
2021,10,25,11,25,989.16
2021,10,25,11,26,989.13
2021,10,25,11,27,989.13
2021,10,25,11,28,989.23
2021,10,25,11,29,989.16
2021,10,25,11,30,989.30
2021,10,25,11,31,989.33
2021,10,25,11,32,989.33
2021,10,25,11,33,989.37
2021,10,25,11,34,989.40
2021,10,25,11,35,989.49
2021,10,25,11,36,989.40
2021,10,25,11,37,989.37
2021,10,25,11,38,989.44
2021,10,25,11,39,989.44
2021,10,25,11,40,989.54
2021,10,25,11,41,989.60
2021,10,25,11,42,989.60
2021,10,25,11,43,989.60
2021,10,25,11,44,989.67
2021,10,25,11,45,989.64
2021,10,25,11,46,989.67
2021,10,25,11,47,989.64
2021,10,25,11,48,989.58
2021,10,25,11,49,989.67
2021,10,25,11,50,989.67
2021,10,25,11,51,989.74
2021,10,25,11,52,989.71
2021,10,25,11,53,989.77
2021,10,25,11,54,989.74
2021,10,25,11,55,989.74
2021,10,25,11,56,989.81
2021,10,25,11,57,989.91
2021,10,25,11,58,989.94
2021,10,25,11,59,990.04
2021,10,25,12,00,990.01
2021,10,25,12,01,989.94
2021,10,25,12,02,989.98
2021,10,25,12,03,989.98
2021,10,25,12,04,990.04
2021,10,25,12,05,990.01
2021,10,25,12,06,989.88
2021,10,25,12,07,990.01
2021,10,25,12,08,990.04
2021,10,25,12,09,990.08
2021,10,25,12,10,990.04
2021,10,25,12,11,990.04
2021,10,25,12,12,989.88
2021,10,25,12,13,990.04
2021,10,25,12,14,990.08
2021,10,25,12,15,990.08
2021,10,25,12,16,990.04
2021,10,25,12,17,990.08
2021,10,25,12,18,990.09
2021,10,25,12,19,990.21
2021,10,25,12,20,990.25
2021,10,25,12,21,990.15
2021,10,25,12,22,990.11
2021,10,25,12,23,990.18
2021,10,25,12,24,990.01
2021,10,25,12,25,990.04
2021,10,25,12,26,989.98
2021,10,25,12,27,990.01
2021,10,25,12,28,990.04
2021,10,25,12,29,990.08
2021,10,25,12,30,990.08
2021,10,25,12,31,990.04
2021,10,25,12,32,990.04
2021,10,25,12,33,990.15
2021,10,25,12,34,990.15
2021,10,25,12,35,990.08
2021,10,25,12,36,990.08
2021,10,25,12,37,990.11
2021,10,25,12,38,990.18
2021,10,25,12,39,990.15
2021,10,25,12,40,990.15
2021,10,25,12,41,990.11
2021,10,25,12,42,990.11
2021,10,25,12,43,990.15
2021,10,25,12,44,990.15
2021,10,25,12,45,990.11
2021,10,25,12,46,990.15
2021,10,25,12,47,990.15
2021,10,25,12,48,990.15
2021,10,25,12,49,990.08
2021,10,25,12,50,990.11
2021,10,25,12,51,990.04
2021,10,25,12,52,990.15
2021,10,25,12,53,990.08
2021,10,25,12,54,990.01
2021,10,25,12,55,990.11
2021,10,25,12,56,990.08
2021,10,25,12,57,990.08
2021,10,25,12,58,990.04
2021,10,25,12,59,990.15
2021,10,25,13,00,990.18
2021,10,25,13,01,990.15
2021,10,25,13,02,990.11
2021,10,25,13,03,990.15
2021,10,25,13,04,990.15
2021,10,25,13,05,990.15
2021,10,25,13,06,990.08
2021,10,25,13,07,990.21
2021,10,25,13,08,990.15
2021,10,25,13,09,990.11
2021,10,25,13,10,990.11
2021,10,25,13,11,990.15
2021,10,25,13,12,990.15
2021,10,25,13,13,990.15
2021,10,25,13,14,990.18
2021,10,25,13,15,990.25
2021,10,25,13,16,990.21
2021,10,25,13,17,990.25
2021,10,25,13,18,990.25
2021,10,25,13,19,990.28
2021,10,25,13,20,990.25
2021,10,25,13,21,990.25
2021,10,25,13,22,990.21
2021,10,25,13,23,990.28
2021,10,25,13,24,990.35
2021,10,25,13,25,990.42
2021,10,25,13,26,990.45
2021,10,25,13,27,990.42
2021,10,25,13,28,990.42
2021,10,25,13,29,990.38
2021,10,25,13,30,990.38
2021,10,25,13,31,990.45
2021,10,25,13,32,990.42
2021,10,25,13,33,990.45
2021,10,25,13,34,990.45
2021,10,25,13,35,990.45
2021,10,25,13,36,990.38
2021,10,25,13,37,990.45
2021,10,25,13,38,990.39
2021,10,25,13,39,990.49
2021,10,25,13,40,990.45
2021,10,25,13,41,990.52
2021,10,25,13,42,990.49
2021,10,25,13,43,990.42
2021,10,25,13,44,990.49
2021,10,25,13,45,990.45
2021,10,25,13,46,990.45
2021,10,25,13,47,990.52
2021,10,25,13,48,990.49
2021,10,25,13,49,990.55
2021,10,25,13,50,990.52
2021,10,25,13,51,990.59
2021,10,25,13,52,990.53
2021,10,25,13,53,990.62
2021,10,25,13,54,990.59
2021,10,25,13,55,990.69
2021,10,25,13,56,990.65
2021,10,25,13,57,990.65
2021,10,25,13,58,990.65
2021,10,25,13,59,990.65
2021,10,25,14,00,990.65
2021,10,25,14,01,990.79
2021,10,25,14,02,990.79
2021,10,25,14,03,990.86
2021,10,25,14,04,990.89
2021,10,25,14,05,990.93
2021,10,25,14,06,990.93
2021,10,25,14,07,990.93
2021,10,25,14,08,990.89
2021,10,25,14,09,990.96
2021,10,25,14,10,990.93
2021,10,25,14,11,990.99
2021,10,25,14,12,991.03
2021,10,25,14,13,990.99
2021,10,25,14,14,991.06
2021,10,25,14,15,991.03
2021,10,25,14,16,990.99
2021,10,25,14,17,991.06
2021,10,25,14,18,991.09
2021,10,25,14,19,991.13
2021,10,25,14,20,991.13
2021,10,25,14,21,991.16
2021,10,25,14,22,991.20
2021,10,25,14,23,991.20
2021,10,25,14,24,991.23
2021,10,25,14,25,991.23
2021,10,25,14,26,991.20
2021,10,25,14,27,991.30
2021,10,25,14,28,991.37
2021,10,25,14,29,991.30
2021,10,25,14,30,991.26
2021,10,25,14,31,991.26
2021,10,25,14,32,991.26
2021,10,25,14,33,991.23
2021,10,25,14,34,991.26
2021,10,25,14,35,991.23
2021,10,25,14,36,991.31
2021,10,25,14,37,991.43
2021,10,25,14,38,991.53
2021,10,25,14,39,991.64
2021,10,25,14,40,991.67
2021,10,25,14,41,991.78
2021,10,25,14,42,991.87
2021,10,25,14,43,991.94
2021,10,25,14,44,992.04
2021,10,25,14,45,992.04
2021,10,25,14,46,992.18
2021,10,25,14,47,992.21
2021,10,25,14,48,992.18
2021,10,25,14,49,992.28
2021,10,25,14,50,992.28
2021,10,25,14,51,992.31
2021,10,25,14,52,992.31
2021,10,25,14,53,992.35
2021,10,25,14,54,992.38
2021,10,25,14,55,992.42
2021,10,25,14,56,992.45
2021,10,25,14,57,992.48
2021,10,25,14,58,992.52
2021,10,25,14,59,992.52
2021,10,25,15,00,992.52
2021,10,25,15,01,992.48
2021,10,25,15,02,992.55
2021,10,25,15,03,992.58
2021,10,25,15,04,992.69
2021,10,25,15,05,992.69
2021,10,25,15,06,992.75
2021,10,25,15,07,992.82
2021,10,25,15,08,992.89
2021,10,25,15,09,992.86
2021,10,25,15,10,992.86
2021,10,25,15,11,992.92
2021,10,25,15,12,992.79
2021,10,25,15,13,992.74
2021,10,25,15,14,992.65
2021,10,25,15,15,992.65
2021,10,25,15,16,992.69
2021,10,25,15,17,992.61
2021,10,25,15,18,992.52
2021,10,25,15,19,992.52
2021,10,25,15,20,992.52
2021,10,25,15,21,992.55
2021,10,25,15,22,992.58
2021,10,25,15,23,992.55
2021,10,25,15,24,992.58
2021,10,25,15,25,992.59
2021,10,25,15,26,992.75
2021,10,25,15,27,992.75
2021,10,25,15,28,992.79
2021,10,25,15,29,992.89
2021,10,25,15,30,992.92
2021,10,25,15,31,992.96
2021,10,25,15,32,992.99
2021,10,25,15,33,992.99
2021,10,25,15,34,993.03
2021,10,25,15,35,992.99
2021,10,25,15,36,993.03
2021,10,25,15,37,993.03
2021,10,25,15,38,993.06
2021,10,25,15,39,993.09
2021,10,25,15,40,993.09
2021,10,25,15,41,993.13
2021,10,25,15,42,993.13
2021,10,25,15,43,993.06
2021,10,25,15,44,993.09
2021,10,25,15,45,993.13
2021,10,25,15,46,993.16
2021,10,25,15,47,993.19
2021,10,25,15,48,993.16
2021,10,25,15,49,993.19
2021,10,25,15,50,993.16
2021,10,25,15,51,993.19
2021,10,25,15,52,993.19
2021,10,25,15,53,993.23
2021,10,25,15,54,993.17
2021,10,25,15,55,993.30
2021,10,25,15,56,993.26
2021,10,25,15,57,993.30
2021,10,25,15,58,993.33
2021,10,25,15,59,993.33
2021,10,25,16,00,993.36
2021,10,25,16,01,993.43
2021,10,25,16,02,993.43
2021,10,25,16,03,993.47
2021,10,25,16,04,993.50
2021,10,25,16,05,993.60
2021,10,25,16,06,993.67
2021,10,25,16,07,993.70
2021,10,25,16,08,993.67
2021,10,25,16,09,993.63
2021,10,25,16,10,993.67
2021,10,25,16,11,993.70
2021,10,25,16,12,993.74
2021,10,25,16,13,993.74
2021,10,25,16,14,993.77
2021,10,25,16,15,993.84
2021,10,25,16,16,993.87
2021,10,25,16,17,993.94
2021,10,25,16,18,993.97
2021,10,25,16,19,993.97
2021,10,25,16,20,994.01
2021,10,25,16,21,994.04
2021,10,25,16,22,994.14
2021,10,25,16,23,994.11
2021,10,25,16,24,994.11
2021,10,25,16,25,994.18
2021,10,25,16,26,994.21
2021,10,25,16,27,994.24
2021,10,25,16,28,994.24
2021,10,25,16,29,994.31
2021,10,25,16,30,994.35
2021,10,25,16,31,994.35
2021,10,25,16,32,994.35
2021,10,25,16,33,994.38
2021,10,25,16,34,994.41
2021,10,25,16,35,994.45
2021,10,25,16,36,994.55